AO-07 1 07530U 74089B 24291.74409500 -.00000025 00000-0 13592-3 0 9991 2 07530 101.9884 287.5799 0011970 209.5204 325.3944 12.53681091284634 UO-11 1 14781U 84021B 24291.48056220 .00004572 00000-0 50718-3 0 9993 2 14781 97.7216 257.2492 0009319 43.1666 317.0280 14.87705691166668 AO-27 1 22825U 93061C 24291.58773959 .00000733 00000-0 29806-3 0 9990 2 22825 98.7739 345.5590 0009495 82.4954 277.7306 14.30621435620384 FO-29 1 24278U 96046B 24291.33853594 .00000065 00000-0 10393-3 0 9996 2 24278 98.5821 209.9851 0349101 231.7741 125.1496 13.53217434390952 NOAA-15 1 25338U 98030A 24291.82947487 .00000855 00000-0 37096-3 0 9994 2 25338 98.5604 316.3606 0009639 332.0604 28.0058 14.26756061374921 GO-32 1 25397U 98043D 24291.91017759 .00000603 00000-0 28167-3 0 9993 2 25397 98.9395 260.5651 0001868 128.8850 231.2495 14.24158752365101 ISS 1 25544U 98067A 24291.85109771 .00022522 00000-0 40103-3 0 9990 2 25544 51.6384 67.8283 0009214 79.0908 281.1118 15.49994385477571 NO-44 1 26931U 01043C 24291.48964499 .00001085 00000-0 43923-3 0 9998 2 26931 67.0531 15.5480 0007592 264.6619 95.3616 14.31443103203611 SO-50 1 27607U 02058C 24291.48437230 .00004833 00000-0 65069-3 0 9993 2 27607 64.5555 205.3889 0028829 47.0195 313.3319 14.80002319174412 CO-55 1 27844U 03031E 24291.75422776 .00001711 00000-0 77033-3 0 9993 2 27844 98.6798 297.1129 0010345 143.2163 216.9727 14.23558472105256 CO-57 1 27848U 03031J 24290.96458532 .00001239 00000-0 56972-3 0 9992 2 27848 98.6830 296.5064 0009863 161.1256 199.0290 14.22955110104853 RS-22 1 27939U 03042A 24291.85501987 .00004321 00000-0 71330-3 0 9997 2 27939 98.3054 90.1831 0012282 37.2218 98.9069 14.70903472126301 NOAA-18 1 28654U 05018A 24291.82705946 .00000835 00000-0 46785-3 0 9997 2 28654 98.8656 7.7299 0015149 77.3907 282.8959 14.13378473 583 CO-58 1 28895U 05043F 24291.84148040 .00005816 00000-0 99960-3 0 9997 2 28895 98.2193 68.0586 0014713 332.8248 27.2185 14.68953930 12685 CO-65 1 32785U 08021C 24291.53380513 .00012003 00000-0 98238-3 0 9991 2 32785 97.7732 256.1318 0007357 287.8337 72.2083 14.99451296893796 AAUSAT2 1 32788U 08021F 24291.47162216 .00059556 00000-0 21394-2 0 9997 2 32788 97.6027 272.9393 0009100 95.8652 264.3625 15.28400837896921 CO-66 1 32791U 08021J 24291.80514751 .00020772 00000-0 13331-2 0 9993 2 32791 97.7044 262.7248 0002042 235.7266 124.3769 15.08500647895050 RS-30 1 32953U 08025A 24291.80419916 .00000048 00000-0 27682-3 0 9993 2 32953 82.5086 13.2149 0019630 194.3757 165.6766 12.43150737744362 PRISM 1 33493U 09002B 24291.44278720 .00068392 00000-0 22713-2 0 9990 2 33493 98.1880 350.4050 0010142 183.5189 176.5980 15.30906298857669 NOAA-19 1 33591U 09005A 24291.86691513 .00000781 00000-0 44193-3 0 9992 2 33591 99.0329 348.8874 0012938 308.7587 51.2428 14.13161876808958 SRMSAT 1 37841U 11058D 24291.88462296 .00000977 00000-0 38869-3 0 9991 2 37841 19.9708 134.6053 0011759 4.0254 132.6079 14.11246582672130 RS-40 1 38735U 12041C 24291.56013774 .00000039 00000-0 21384-3 0 9998 2 38735 82.4713 93.5818 0016775 313.8991 46.0703 12.42618478554374 ZACUBE-1 1 39417U 13066B 24291.44965878 .00010257 00000-0 99764-3 0 9992 2 39417 97.7487 244.9464 0050419 114.0476 246.6030 14.91777263589799 Delfi-N3xt 1 39428U 13066N 24291.73970435 .00016767 00000-0 19695-2 0 9997 2 39428 97.8337 207.0528 0097822 51.2606 309.7300 14.81539966584390 GOMX-1 1 39430U 13066Q 24291.60369740 .00006050 00000-0 98156-3 0 9991 2 39430 97.7107 158.5500 0135854 222.8480 136.2075 14.65508414580968 LO-74 1 39440U 13066AA 24291.79954098 .00010236 00000-0 11397-2 0 9990 2 39440 97.8229 233.0390 0064982 231.7935 127.7418 14.85748597587725 AO-73 1 39444U 13066AE 24291.41533413 .00014883 00000-0 13194-2 0 9996 2 39444 97.7332 248.4088 0047780 93.4720 267.1968 14.95424287588356 DTUSAT-2 1 40030U 14033W 24291.84346110 .00015073 00000-0 11611-2 0 9991 2 40030 98.0203 247.8767 0011689 122.0362 238.1998 15.01691397561591 EO-80 1 40032U 14033Y 24291.60906951 .00014220 00000-0 10937-2 0 9995 2 40032 98.0172 247.5963 0013065 78.5618 281.7073 15.01750368561549 XW-2C 1 40906U 15049H 24291.85080550 .00077826 00000-0 10728-2 0 9997 2 40906 97.4668 312.8732 0005540 187.8056 172.3113 15.56944422503453 XW-2D 1 40907U 15049J 24291.75638508 .00274093 00000-0 14699-2 0 9995 2 40907 97.4546 317.4631 0005149 166.8164 193.3238 15.79524687503813 LILACSAT-2 1 40908U 15049K 24291.84481885 .00017335 00000-0 59130-3 0 9994 2 40908 97.5226 301.7534 0009047 280.1333 79.8887 15.30376162502229 XW-2B 1 40911U 15049N 24290.93451387 .00246526 00000-0 15400-2 0 9998 2 40911 97.4533 316.3784 0004914 170.7666 189.3690 15.76152951503535 IO-86 1 40931U 15052B 24270.29994034 .00002074 00000-0 19195-3 0 9996 2 40931 5.9998 350.0993 0012711 76.7416 283.4129 14.78150863486449 ChubuSat-2 1 41338U 16012B 24291.42311674 .00010870 00000-0 63081-3 0 9992 2 41338 31.0016 322.7630 0009686 25.7453 334.3666 15.10860850476080 ChubuSat-3 1 41339U 16012C 24291.75328429 .00010052 00000-0 59697-3 0 9995 2 41339 31.0080 320.0162 0009900 32.3059 327.8184 15.10005659476101 Horyu-4 1 41340U 16012D 24291.24455248 .00026963 00000-0 11363-2 0 9996 2 41340 31.0016 257.2016 0008017 151.2751 208.8333 15.22134108476726 Lapan A3 1 41603U 16040E 24291.86756056 .00007215 00000-0 27545-3 0 9997 2 41603 97.1412 300.1485 0012767 34.5984 325.6084 15.26856421461938 Pratham 1 41783U 16059A 24291.51367784 .00003166 00000-0 58872-3 0 9992 2 41783 97.8328 305.1303 0032061 355.2923 4.7974 14.65470910430452 CAS-2T 1 41847U 16066G 24291.67149760 .00005655 00000-0 82084-3 0 9997 2 41847 98.4495 2.0545 0351453 168.1180 192.8581 14.42088819417143 CAS-4B 1 42759U 17034B 24291.86040994 .00036603 00000-0 10230-2 0 9996 2 42759 43.0152 249.8619 0011344 104.5784 255.6329 15.35996124406215 CAS-4A 1 42761U 17034D 24291.84985975 .00035843 00000-0 99670-3 0 9995 2 42761 43.0189 248.1557 0011627 115.6120 244.5938 15.36159611406229 D-SAT 1 42794U 17036AF 24291.50805574 .00013672 00000-0 88132-3 0 9999 2 42794 97.4884 269.1608 0106787 92.0479 269.2980 15.03750566399117 TechnoSat 1 42829U 17042E 24291.74012766 .00007536 00000-0 63466-3 0 9999 2 42829 97.3871 106.1229 0012437 22.7992 337.3781 14.98421295395511 AO-91 1 43017U 17073E 24291.60335390 .00017425 00000-0 10081-2 0 9991 2 43017 97.5557 162.9163 0196586 243.0187 115.0842 14.97391785373955 TianYi 6 1 43158U 18008D 24289.57081905 .01911305 30434-2 22393-2 0 9995 2 43158 97.2486 341.2486 0006509 265.8690 94.1850 16.09457699373267 S-Net D 1 43186U 18014G 24291.47206032 .00011401 00000-0 76272-3 0 9992 2 43186 97.5771 191.2488 0008826 321.2882 38.7712 15.07073159366903 S-Net B 1 43187U 18014H 24291.80701386 .00011577 00000-0 77438-3 0 9991 2 43187 97.5774 191.5371 0009382 313.9691 46.0762 15.07069972366955 S-Net A 1 43188U 18014J 24291.47308361 .00011416 00000-0 76360-3 0 9996 2 43188 97.5783 191.3313 0009312 316.3983 43.6508 15.07075525366901 S-Net C 1 43189U 18014K 24291.27787510 .00012378 00000-0 82756-3 0 9996 2 43189 97.5793 191.1114 0010858 306.5274 53.4953 15.07059644365424 Ten-Koh 1 43677U 18084G 24291.41592310 .00006494 00000-0 55845-3 0 9994 2 43677 98.0788 88.7882 0013418 336.1316 23.9281 14.97699948325001 PO-101 1 43678U 18084H 24291.89898847 .00004278 00000-0 38358-3 0 9999 2 43678 98.0853 93.6752 0008792 351.9651 8.1427 14.96308235325262 QO-100 1 43700U 18090A 24291.55860265 .00000143 00000-0 00000-0 0 9995 2 43700 0.0135 246.8688 0001448 348.9251 17.6892 1.00271745 21582 MinXSS-2 1 43758U 18099A 24291.14061707 .00024788 00000-0 13617-2 0 9997 2 43758 97.5393 351.9035 0013966 256.4751 103.4925 15.14017476321204 AO-95 1 43770U 18099N 24291.58128506 .00016520 00000-0 10306-2 0 9997 2 43770 97.5306 346.9920 0011540 307.2568 52.7608 15.09534087321004 RANGE-B 1 43772U 18099Q 24291.13339770 .00030027 00000-0 15714-2 0 9993 2 43772 97.5097 350.6073 0004782 196.3271 163.7808 15.15771890321155 RANGE-A 1 43773U 18099R 24291.57363413 .00010361 00000-0 73837-3 0 9993 2 43773 97.4856 340.9476 0011187 277.2284 82.7671 15.04718228320822 MOVE-II 1 43780U 18099Y 24291.15516303 .00055928 00000-0 21661-2 0 9998 2 43780 97.5055 353.6385 0004417 263.2112 96.8624 15.25957070321452 SNUSat 2 1 43782U 18099AA 24291.41542675 .00013866 00000-0 90029-3 0 9990 2 43782 97.4991 345.2849 0012336 240.6901 119.3095 15.08099684320976 SnugLite 1 43784U 18099AC 24291.72288432 .00016118 00000-0 99985-3 0 9997 2 43784 97.4798 344.8808 0002954 237.7593 122.3350 15.09796358321109 ITASat 1 1 43786U 18099AE 24291.55367359 .00012332 00000-0 82004-3 0 9994 2 43786 97.4961 345.4844 0014724 297.3120 62.6608 15.07218994320986 EAGLET 1 1 43790U 18099AJ 24291.40968292 .00009479 00000-0 67035-3 0 9991 2 43790 97.5149 345.8024 0011247 274.0997 85.8944 15.05030758320646 ESEO 1 43792U 18099AL 24291.53674034 .00005226 00000-0 41620-3 0 9993 2 43792 97.4955 341.9273 0006036 236.4462 123.6186 15.00768224320543 CSIM 1 43793U 18099AM 24291.76495220 .00047086 00000-0 18578-2 0 9992 2 43793 97.5180 356.0557 0009903 239.3311 120.6951 15.25349395321390 JO-97 1 43803U 18099AX 24291.62947643 .00018550 00000-0 10923-2 0 9990 2 43803 97.5057 347.7935 0007915 235.8719 124.1761 15.11640621321160 Suomi 100 1 43804U 18099AY 24291.69107642 .00016565 00000-0 10081-2 0 9994 2 43804 97.5128 347.5929 0013416 237.9246 122.0682 15.10420128321146 ISAT 1 43879U 18111D 24291.71195679 .00026807 00000-0 13905-2 0 9999 2 43879 97.6062 197.1455 0009528 309.6117 50.4273 15.16082333315929 UWE-4 1 43880U 18111E 24291.46601839 .00024076 00000-0 13069-2 0 9990 2 43880 97.5994 196.5694 0013332 318.5695 41.4525 15.14457450317904 Sparrow 1 43881U 18111F 24291.70348106 .00028054 00000-0 14290-2 0 9990 2 43881 97.6165 199.2958 0009083 357.8723 2.2469 15.16716070316016 Prox-1 1 44339U 19036A 24291.33900516 .00020096 00000-0 31498-2 0 9991 2 44339 23.9980 157.2563 0008297 291.5102 68.4508 14.71160460283229 SONATE 1 44400U 19038Q 24291.51553065 .00045299 00000-0 10024-2 0 9999 2 44400 97.7147 291.8427 0015276 40.2903 319.9473 15.43549808292883 Taurus 1 1 44530U 19059C 24291.83675293 .00014001 00000-0 29872-2 0 9997 2 44530 98.5871 55.6006 0009590 40.0951 320.0954 14.58968030269622 Duchifat 3 1 44854U 19089C 24291.61796466 .00033962 00000-0 13801-2 0 9993 2 44854 36.9548 22.2483 0008153 60.1515 300.0044 15.23668715266838 TO-108 1 44881U 19093C 24291.82087739 .00003857 00000-0 46389-3 0 9995 2 44881 97.8188 6.2249 0012777 282.5443 77.4342 14.84452314261230 FloripaSat 1 1 44885U 19093G 24291.79134169 .00012067 00000-0 11616-2 0 9992 2 44885 97.8350 13.5960 0010693 267.3958 92.6037 14.93074437261644 RS-44 1 44909U 19096E 24291.54370835 .00000031 00000-0 71849-4 0 9991 2 44909 82.5265 23.4602 0218408 125.0215 237.1597 12.79735087224621 UPMSat 2 1 46276U 20061E 24291.55133096 .00036616 00000-0 87126-3 0 9993 2 46276 97.2831 356.8290 0002056 84.7437 275.4045 15.41539696228970 AmicalSat 1 46287U 20061R 24291.59042342 .00114219 00000-0 16702-2 0 9999 2 46287 97.3320 0.0235 0002206 159.2019 200.9326 15.55218305228458 SALSAT 1 46495U 20068K 24291.43923823 .00014664 00000-0 75786-3 0 9993 2 46495 97.8316 254.1439 0010565 252.3111 107.6968 15.16341251222815 UVSQ-SAT 1 47438U 21006AB 24291.64026545 .00900441 38006-3 19693-2 0 9993 2 47438 97.2919 356.2483 0003735 239.0691 121.0220 15.98260352207855 SOMP 2b 1 47445U 21006AJ 24291.21840725 .00285249 00000-0 18565-2 0 9997 2 47445 97.2961 352.7633 0003916 161.5158 198.6250 15.75106142207625 IDEASSat 1 47458U 21006AX 24291.43682187 .00180367 00000-0 18035-2 0 9998 2 47458 97.3106 352.8343 0004772 149.0444 211.1097 15.65000281207536 CubeSX-Sirius-HSE 1 47951U 21022V 24291.83629334 .00045183 00000-0 13066-2 0 9998 2 47951 97.4426 190.4776 0014998 68.1789 292.1048 15.35373374197323 CubeSX-HSE 1 47952U 21022W 24291.84197688 .00044812 00000-0 12862-2 0 9993 2 47952 97.4425 190.6063 0015233 67.2514 293.0337 15.35607115197338 KSU-Cubesat 1 47954U 21022Y 24291.25343207 .00074445 00000-0 17668-2 0 9994 2 47954 97.4434 192.0864 0013936 64.8260 295.4431 15.41338714197091 GRBAlpha 1 47959U 21022AD 24291.86542689 .00047139 00000-0 13507-2 0 9999 2 47959 97.4428 190.7965 0015099 66.9149 293.3685 15.35649687196169 Orbicraft-Zorkiy 1 47960U 21022AE 24291.84515329 .00060077 00000-0 15204-2 0 9992 2 47960 97.4469 192.6179 0014129 65.6696 294.6023 15.39447446196949 TUBIN 1 48900U 21059X 24291.82005545 .00031959 00000-0 86747-3 0 9997 2 48900 97.6601 80.7198 0005725 15.2261 344.9154 15.37526415183710 LEDSAT 1 49069U 21073D 24291.64535584 .00036475 00000-0 11506-2 0 9999 2 49069 97.4244 2.4455 0016414 206.7783 153.2613 15.32645623175156 CUTE 1 49263U 21088D 24291.58410426 .00040353 00000-0 14570-2 0 9995 2 49263 97.4833 357.3019 0011433 18.5607 341.6047 15.28313423168278 TeikyoSat 4 1 49396U 21102B 24291.65696932 .00006105 00000-0 42703-3 0 9992 2 49396 97.4462 332.3984 0012141 211.9823 148.0669 15.05574598161171 Z-Sat 1 49399U 21102E 24291.85419150 .00009540 00000-0 57947-3 0 9994 2 49399 97.4170 334.4993 0019182 190.8960 169.1857 15.10540961161493 KOSEN 1 1 49402U 21102H 24291.88250038 .00013558 00000-0 73694-3 0 9991 2 49402 97.4086 336.4697 0018068 172.4563 187.6945 15.14465273161695 HO-113 1 50466U 21131B 24291.84874164 .00002644 00000-0 85122-3 0 9996 2 50466 98.5235 16.3454 0005187 116.1838 243.9884 14.40112558147659 IRIS-A 1 51044U 22002BN 24291.63969317 .00045417 00000-0 10931-2 0 9999 2 51044 97.3696 358.3135 0003852 320.3808 39.7157 15.41142029153219 Planetum 1 1 52738U 22057G 24291.80258474 .00202187 00000-0 18089-2 0 9995 2 52738 97.5728 64.2117 0001714 315.4816 44.6306 15.67724159133576 Foresail-1 1 52766U 22057AL 24291.80773217 .00044204 00000-0 10488-2 0 9992 2 52766 97.5950 61.0202 0007459 55.6544 304.5407 15.41560846133277 SNUGLITE 2 1 52899U 22065F 24291.62964550 .00004513 00000-0 91379-3 0 9998 2 52899 98.1376 70.5945 0008452 127.0676 233.1299 14.61740722122140 IO-117 1 53106U 22080B 24281.96479996 -.00000003 00000-0 00000-0 0 9997 2 53106 70.1376 153.3488 0008243 81.8360 278.3235 6.42557544 52511 FO-118 1 54684U 22167C 24291.89307031 .00077102 00000-0 16563-2 0 9994 2 54684 97.6161 80.7791 0006308 66.2876 293.9033 15.44387985103134 SSS-2B 1 56184U 23054G 24291.86308053 .00131272 00000-0 15179-2 0 9990 2 56184 97.3468 192.1428 0009573 87.6584 272.5770 15.61384706 85129 SO-120 1 56992U 23084BU 24291.80623956 .00085561 00000-0 18653-2 0 9995 2 56992 97.5394 53.6803 0009896 299.4837 60.5423 15.43886061 74989 MRC-100 1 56993U 23084BV 24291.31326104 .00138041 00000-0 24270-2 0 9991 2 56993 97.5378 54.2071 0009786 292.9973 67.0246 15.49937834 74989 UmKA 1 (RS40S) 1 57172U 23091G 24291.83300220 .00011844 00000-0 72518-3 0 9997 2 57172 97.5965 342.7390 0017164 65.5741 294.7277 15.10229199 71982 CubeBel-2 (EU11S) 1 57175U 23091K 24291.89659460 .00015976 00000-0 93494-3 0 9995 2 57175 97.5966 342.9500 0015503 76.1449 284.1505 15.11821481 72003 VERONIKA 1 58261U 23174F 24291.78482571 .00041081 00000-0 14043-2 0 9997 2 58261 97.4484 6.0077 0010969 169.0423 191.1058 15.30102144 52395 KAFASAT 1 58317U 23174BP 24291.57714667 .00067325 00000-0 18726-2 0 9991 2 58317 97.4421 7.1010 0009259 148.5507 211.6293 15.36553545 52460 ENSO 1 58470U 23185J 24291.86048071 .00034457 00000-0 11549-2 0 9990 2 58470 97.4119 357.7469 0010841 199.4962 160.5865 15.30781957 48854 EIRSAT-1 1 58472U 23185L 24291.88801698 .00040604 00000-0 12957-2 0 9991 2 58472 97.4110 357.9841 0010430 199.6531 160.4310 15.32331534 48871 SO-121 1 58567U 23174CY 24289.46998291 .00435963 00000-0 39716-2 0 9999 2 58567 97.4337 7.5964 0006223 207.7840 152.3088 15.66548994 52313 SONATE-2 1 59112U 24043Q 24291.75845400 .00022519 00000-0 93866-3 0 9996 2 59112 97.4924 54.7421 0013370 223.6518 136.3663 15.23632458 34430 MO-122 1 60209U 24125G 24291.34315008 .00025172 00000-0 10440-2 0 9991 2 60209 97.3054 141.2197 0022694 254.9862 104.8864 15.23618266 15985 GRBBeta 1 60237U 24128C 24291.08208291 .00008820 00000-0 74291-3 0 9997 2 60237 61.9940 178.3193 0021290 352.4867 7.5900 14.98653239 14859 Curium One 1 60242U 24128H 24290.98841036 .00013741 00000-0 11481-2 0 9990 2 60242 61.9847 178.8510 0021366 340.3325 19.6937 14.98622088 14849 ROBUSTA-3A 1 60243U 24128J 24291.66984844 .00012938 00000-0 10893-2 0 9995 2 60243 61.9910 176.6860 0019696 336.9419 23.0783 14.98392218 14941 CatSat 1 60246U 24125J 24291.59738632 .00017363 00000-0 73252-3 0 9995 2 60246 97.2884 142.5096 0049251 205.2762 154.6064 15.22228383 14131 SR-0 DemoSAT 1 60455U 24147B 24291.35880386 .00629443 00000-0 54592-2 0 9992 2 60455 37.3727 266.8822 0025564 175.1380 184.9643 15.65917357 9612 Binar 4 1 60952U 98067WS 24291.79066880 .00450370 00000-0 28542-2 0 9996 2 60952 51.6286 64.4146 0005436 333.6083 26.4639 15.74656432 7719 CosmoGirlSat 1 60953U 98067WT 24291.38406822 .00195427 00000-0 19929-2 0 9994 2 60953 51.6332 67.7116 0003678 88.1279 272.0137 15.63918548 7630 Sakura 1 60954U 98067WU 24291.67856331 .00206378 00000-0 19362-2 0 9990 2 60954 51.6327 65.9273 0002754 71.7781 288.3514 15.65982596 7689 Binar 2 1 60956U 98067WW 24291.75944535 .00383055 00000-0 28439-2 0 9998 2 60956 51.6213 64.9409 0003456 353.9896 6.1059 15.71137747 7695 Binar 3 1 60957U 98067WX 24291.77286392 .00415140 00000-0 26103-2 0 9998 2 60957 51.6250 64.2887 0006108 344.3754 15.7055 15.74934235 9698 CySat-1 1 61501U 98067WZ 24291.51758430 .00132108 00000-0 20613-2 0 9993 2 61501 51.6377 69.3504 0008178 92.6902 267.5024 15.52845604 1459 DORA 1 61502U 98067XA 24291.77158966 .00195855 00000-0 28869-2 0 9999 2 61502 51.6377 68.0460 0006003 70.0314 290.1323 15.54177145 1486 /EX
